Home > Time Zones > World Clock > Weather > France > Lens > Past weeks

Flag for France Weather past 2 weeks in Lens, France

Now
61 °F

Mostly cloudy.


Feels Like: 61 °F
Forecast: 51 / 60 °F
Wind: 14 mph from Northwest

Location: Lille Airport

Current Time: Sep 4, 2015 at 5:16:21 PM

Latest Report: Sep 4, 2015 at 4:30 PM


Visibility: N/A

Pressure: 30.01 "Hg

Humidity: 59%

Dew point: 46 °F

Location of LensLocation

Historic Weather in Lens — Graph

°F

Lens temperature yesterday

Maximum temperature yesterday: 64 °F (at 4:30 PM)
Minimum temperature yesterday: 46 °F (at 6:00 AM)
Average temperature yesterday: 56 °F

Past Weeks' High & Low Weather Summary

 TemperatureHumidityPressure
High86 °F (Aug 30, 4:30 PM)100% (Aug 21, 1:30 AM)30.21 "Hg (Aug 21, 1:30 AM)
Low46 °F (Sep 3, 6:00 AM)32% (Aug 22, 1:00 PM)29.39 "Hg (Aug 24, 6:30 PM)
Average64 °F77%29.93 "Hg
* Reported Aug 20 4:00 PM — Sep 4 4:00 PM, Lens, Weather by CustomWeather, © 2015

Note: Actual official high and low records may vary slightly from our data, if they occured in-between our weather recording intervals... More about our weather records

Advertising

Lens weather history for previous 24 hours

 ConditionsComfort  
Time TempWeatherWind HumidityBarometerVisibility
4:00 PM
Fri, Sep 4
61 °FMore clouds than sun.9 mph68%30.01 "HgN/A
3:30 PM59 °FSunny.8 mph68%30.01 "Hg10 mi
3:00 PM59 °FOvercast.8 mph68%30.04 "HgN/A
2:30 PM59 °FMostly cloudy.10 mph68%30.04 "HgN/A
2:00 PM59 °FMore clouds than sun.10 mph72%30.01 "HgN/A
1:30 PM59 °FPartly sunny.14 mph72%30.01 "HgN/A
1:00 PM63 °FScattered clouds.10 mph52%30.01 "HgN/A
12:30 PM61 °FPassing clouds.10 mph59%30.01 "HgN/A
12:00 PM61 °FScattered clouds.13 mph55%30.01 "HgN/A
11:30 AM61 °FOvercast.13 mph59%30.01 "HgN/A
11:00 AM59 °FSunny.13 mph63%30.01 "Hg10 mi
10:30 AM59 °FSunny.13 mph68%30.01 "Hg10 mi
10:00 AM57 °FSunny.10 mph72%30.01 "Hg10 mi
9:30 AM57 °FSunny.9 mph72%30.01 "Hg10 mi
9:00 AM55 °FSunny.8 mph77%30.01 "Hg10 mi
8:30 AM54 °FSunny.6 mph82%30.01 "Hg10 mi
8:00 AM52 °FClear.5 mph88%30.01 "Hg10 mi
7:30 AM50 °FClear.5 mph88%29.98 "Hg10 mi
7:00 AM52 °FClear.5 mph82%29.98 "Hg10 mi
6:30 AM52 °FClear.6 mph88%29.98 "Hg10 mi
6:00 AM52 °FClear.3 mph88%29.98 "Hg10 mi
5:30 AM54 °FClear.5 mph82%29.98 "Hg10 mi
5:00 AM54 °FClear.5 mph82%29.98 "Hg10 mi
4:30 AM54 °FClear.3 mph82%29.98 "Hg10 mi
4:00 AM54 °FClear.5 mph82%29.98 "Hg10 mi
3:30 AM54 °FMostly cloudy.5 mph82%29.98 "HgN/A
3:00 AM54 °FClear.5 mph82%29.98 "Hg10 mi
2:30 AM54 °FClear.5 mph82%30.01 "Hg10 mi
2:00 AM54 °FClear.5 mph82%30.01 "Hg10 mi
1:30 AM54 °FClear.5 mph82%30.01 "Hg10 mi
1:00 AM54 °FClear.5 mph82%30.01 "Hg10 mi
12:30 AM54 °FClear.2 mph82%29.98 "Hg10 mi
11:30 PM
Thu, Sep 3
55 °FClear.6 mph72%29.98 "Hg10 mi
11:00 PM55 °FPartly cloudy.7 mph72%29.98 "HgN/A
10:30 PM55 °FPartly cloudy.5 mph77%29.98 "HgN/A
10:00 PM55 °FOvercast.3 mph77%29.98 "HgN/A
9:30 PM55 °FMostly cloudy.3 mph72%29.98 "HgN/A
9:00 PM57 °FSunny.6 mph67%29.98 "Hg10 mi
8:30 PM59 °FSunny.7 mph59%29.98 "Hg10 mi
8:00 PM59 °FPartly sunny.13 mph59%29.98 "HgN/A
7:30 PM61 °FBroken clouds.10 mph55%29.98 "HgN/A
7:00 PM63 °FSunny.12 mph52%29.98 "Hg10 mi
6:30 PM61 °FSunny.9 mph52%29.98 "Hg10 mi
6:00 PM61 °FSunny.12 mph52%29.98 "Hg10 mi
5:30 PM61 °FLight rain. Clear.13 mph63%29.98 "HgN/A
5:00 PM61 °FMostly cloudy.14 mph55%29.95 "HgN/A
Weather by CustomWeather, © 2015

See weather overviewHow to use our weather pages